When you browse on this site, cookies collect data to enhance your experience and personalize the content and advertising you see.
Visit our Privacy Policy to learn more. By continuing to use the site, you agree to this use of cookies and data.
  • en Suisse
  • Liste des pays
  • À 7 jours
  • Température de l'eau
  • Carte météo
  • Widgets météo
  • user-avatar
    Se connecter

    Météo par heure à Armagh

    Ce jour, 29 Mars, Dimanche

    Heure Température Précipitation Vent Pression Humidité
    00:00 -1°C° 0 mm 4 m/s 778 mmHg 77%
    01:00 -1°C° 0 mm 3 m/s 779 mmHg 77%
    02:00 -1°C° 0 mm 3 m/s 779 mmHg 78%
    03:00 -1°C° 0 mm 3 m/s 779 mmHg 78%
    04:00 -2°C° 0 mm 3 m/s 779 mmHg 78%
    05:00 -2°C° 0 mm 3 m/s 780 mmHg 78%
    06:00 -2°C° 0 mm 3 m/s 780 mmHg 78%
    07:00 -1°C° 0 mm 3 m/s 780 mmHg 71%
    08:00 0°C° 0 mm 4 m/s 781 mmHg 64%
    09:00 +3°C° 0 mm 4 m/s 781 mmHg 57%
    10:00 +3°C° 0 mm 4 m/s 781 mmHg 55%
    11:00 +4°C° 0 mm 4 m/s 781 mmHg 54%
    12:00 +5°C° 0 mm 3 m/s 781 mmHg 52%
    13:00 +7°C° 0 mm 3 m/s 781 mmHg 52%
    14:00 +6°C° 0 mm 4 m/s 780 mmHg 53%
    15:00 +6°C° 0 mm 4 m/s 780 mmHg 53%
    16:00 +5°C° 0 mm 4 m/s 780 mmHg 59%
    17:00 +4°C° 0 mm 4 m/s 780 mmHg 65%
    18:00 +2°C° 0 mm 5 m/s 780 mmHg 70%
    19:00 +1°C° 0 mm 4 m/s 780 mmHg 77%
    20:00 0°C° 0 mm 4 m/s 780 mmHg 83%
    21:00 0°C° 0 mm 3 m/s 780 mmHg 90%
    22:00 0°C° 0 mm 3 m/s 779 mmHg 90%
    23:00 +1°C° 0 mm 3 m/s 779 mmHg 90%

    Demain, 30 Mars, Lundi

    Heure Température Précipitation Vent Pression Humidité
    00:00 +1°C° 0 mm 3 m/s 779 mmHg 91%
    01:00 +1°C° 0 mm 3 m/s 778 mmHg 91%
    02:00 +1°C° 0 mm 3 m/s 778 mmHg 91%
    03:00 +1°C° 0 mm 3 m/s 777 mmHg 91%
    04:00 +1°C° 0 mm 3 m/s 777 mmHg 92%
    05:00 +1°C° 0 mm 3 m/s 777 mmHg 93%
    06:00 +1°C° 0 mm 3 m/s 777 mmHg 93%
    07:00 +3°C° 0 mm 4 m/s 776 mmHg 87%
    08:00 +5°C° 0 mm 5 m/s 776 mmHg 81%
    09:00 +5°C° 0 mm 6 m/s 776 mmHg 75%
    10:00 +7°C° 0 mm 6 m/s 776 mmHg 72%
    11:00 +8°C° 0 mm 6 m/s 775 mmHg 70%
    12:00 +8°C° 0 mm 6 m/s 775 mmHg 68%
    13:00 +8°C° 0 mm 6 m/s 775 mmHg 68%
    14:00 +8°C° 0 mm 6 m/s 774 mmHg 68%
    15:00 +8°C° 0 mm 6 m/s 774 mmHg 68%
    16:00 +7°C° 0 mm 6 m/s 774 mmHg 70%
    17:00 +6°C° 0 mm 5 m/s 774 mmHg 72%
    18:00 +5°C° 0 mm 5 m/s 773 mmHg 74%
    19:00 +5°C° 0 mm 4 m/s 773 mmHg 79%
    20:00 +4°C° 0 mm 4 m/s 773 mmHg 84%
    21:00 +3°C° 0 mm 3 m/s 773 mmHg 88%
    22:00 +2°C° 0 mm 3 m/s 773 mmHg 90%
    23:00 +2°C° 0 mm 3 m/s 773 mmHg 91%

    Après-demain, 31 Mars, Mardi

    Heure Température Précipitation Vent Pression Humidité
    00:00 +1°C° 0 mm 3 m/s 773 mmHg 93%
    01:00 +2°C° 0 mm 2 m/s 773 mmHg 92%
    02:00 +2°C° 0 mm 2 m/s 773 mmHg 92%
    03:00 +2°C° 0 mm 2 m/s 773 mmHg 91%
    04:00 +2°C° 0 mm 2 m/s 773 mmHg 89%
    05:00 +3°C° 0 mm 2 m/s 773 mmHg 86%
    06:00 +3°C° 0 mm 2 m/s 773 mmHg 84%
    07:00 +3°C° 0 mm 3 m/s 773 mmHg 81%
    08:00 +4°C° 0 mm 3 m/s 772 mmHg 77%
    09:00 +5°C° 0 mm 4 m/s 772 mmHg 73%
    10:00 +5°C° 0 mm 4 m/s 772 mmHg 72%
    11:00 +6°C° 0 mm 4 m/s 772 mmHg 71%
    12:00 +6°C° 0 mm 4 m/s 772 mmHg 70%
    13:00 +7°C° 0 mm 4 m/s 772 mmHg 69%
    14:00 +7°C° 0 mm 4 m/s 771 mmHg 69%
    15:00 +7°C° 0 mm 4 m/s 771 mmHg 69%
    16:00 +7°C° 0 mm 4 m/s 770 mmHg 70%
    17:00 +6°C° 0 mm 4 m/s 770 mmHg 71%
    18:00 +7°C° 0 mm 3 m/s 770 mmHg 72%
    19:00 +5°C° 0 mm 3 m/s 770 mmHg 74%
    20:00 +5°C° 0 mm 3 m/s 770 mmHg 77%
    21:00 +5°C° 0 mm 2 m/s 770 mmHg 79%
    22:00 +5°C° 0 mm 2 m/s 770 mmHg 80%
    23:00 +5°C° 0 mm 2 m/s 770 mmHg 82%

    1 Avril, Mercredi

    Heure Température Précipitation Vent Pression Humidité
    00:00 +5°C° 0 mm 2 m/s 769 mmHg 83%
    01:00 +5°C° 0 mm 2 m/s 769 mmHg 84%
    02:00 +5°C° 0 mm 2 m/s 768 mmHg 85%
    03:00 +5°C° 0 mm 2 m/s 768 mmHg 86%
    04:00 +4°C° 0 mm 2 m/s 768 mmHg 87%
    05:00 +4°C° 0 mm 2 m/s 767 mmHg 87%
    06:00 +4°C° 0 mm 2 m/s 767 mmHg 87%
    07:00 +4°C° 0 mm 3 m/s 767 mmHg 83%
    08:00 +5°C° 0 mm 3 m/s 767 mmHg 80%
    09:00 +7°C° 0 mm 3 m/s 766 mmHg 77%
    10:00 +6°C° 0.1 mm 4 m/s 766 mmHg 76%
    11:00 +7°C° 0.1 mm 4 m/s 766 mmHg 75%
    12:00 +7°C° 0.1 mm 4 m/s 766 mmHg 75%
    13:00 +7°C° 0.1 mm 4 m/s 765 mmHg 73%
    14:00 +7°C° 0.1 mm 4 m/s 765 mmHg 72%
    15:00 +7°C° 0.1 mm 4 m/s 764 mmHg 70%
    16:00 +7°C° 0.1 mm 4 m/s 764 mmHg 73%
    17:00 +6°C° 0.1 mm 4 m/s 764 mmHg 75%
    18:00 +7°C° 0.1 mm 3 m/s 763 mmHg 78%
    19:00 +5°C° 0 mm 3 m/s 763 mmHg 82%
    20:00 +4°C° 0 mm 3 m/s 763 mmHg 85%
    21:00 +3°C° 0 mm 3 m/s 763 mmHg 89%
    22:00 +3°C° 0 mm 3 m/s 763 mmHg 90%
    23:00 +3°C° 0 mm 3 m/s 763 mmHg 92%

    2 Avril, Jeudi

    Heure Température Précipitation Vent Pression Humidité
    00:00 +2°C° 0 mm 3 m/s 763 mmHg 93%
    01:00 +2°C° 0 mm 3 m/s 762 mmHg 93%
    02:00 +2°C° 0 mm 3 m/s 762 mmHg 94%
    03:00 +2°C° 0 mm 3 m/s 761 mmHg 94%
    04:00 +3°C° 0 mm 3 m/s 761 mmHg 95%
    05:00 +3°C° 0 mm 3 m/s 761 mmHg 95%
    06:00 +3°C° 0 mm 3 m/s 761 mmHg 96%
    07:00 +5°C° 0 mm 4 m/s 761 mmHg 92%
    08:00 +6°C° 0 mm 4 m/s 760 mmHg 88%
    09:00 +8°C° 0 mm 5 m/s 760 mmHg 84%
    10:00 +8°C° 0.1 mm 5 m/s 760 mmHg 81%
    11:00 +9°C° 0.1 mm 5 m/s 760 mmHg 78%
    12:00 +10°C° 0.1 mm 5 m/s 759 mmHg 75%
    13:00 +10°C° 0.1 mm 6 m/s 759 mmHg 74%
    14:00 +10°C° 0.1 mm 6 m/s 759 mmHg 73%
    15:00 +10°C° 0.1 mm 6 m/s 758 mmHg 73%
    16:00 +9°C° 0.1 mm 5 m/s 758 mmHg 75%
    17:00 +8°C° 0.1 mm 5 m/s 758 mmHg 77%
    18:00 +8°C° 0.1 mm 4 m/s 757 mmHg 79%
    19:00 +7°C° 0.1 mm 4 m/s 757 mmHg 84%
    20:00 +6°C° 0.1 mm 4 m/s 757 mmHg 88%
    21:00 +6°C° 0.1 mm 4 m/s 757 mmHg 93%
    22:00 +6°C° 0.3 mm 4 m/s 757 mmHg 93%
    23:00 +5°C° 0.3 mm 4 m/s 757 mmHg 93%

    3 Avril, Vendredi

    Heure Température Précipitation Vent Pression Humidité
    00:00 +5°C° 0.3 mm 4 m/s 756 mmHg 93%
    01:00 +5°C° 0.1 mm 4 m/s 756 mmHg 93%
    02:00 +4°C° 0.1 mm 4 m/s 756 mmHg 92%
    03:00 +3°C° 0.1 mm 4 m/s 756 mmHg 92%
    04:00 +3°C° 0 mm 3 m/s 756 mmHg 92%
    05:00 +3°C° 0 mm 3 m/s 756 mmHg 91%
    06:00 +3°C° 0 mm 3 m/s 757 mmHg 91%
    07:00 +3°C° 0 mm 3 m/s 757 mmHg 87%
    08:00 +4°C° 0 mm 4 m/s 757 mmHg 83%
    09:00 +5°C° 0 mm 4 m/s 757 mmHg 79%
    10:00 +6°C° 0.1 mm 4 m/s 757 mmHg 76%
    11:00 +6°C° 0.1 mm 5 m/s 757 mmHg 73%
    12:00 +7°C° 0.1 mm 5 m/s 757 mmHg 70%
    13:00 +7°C° 0.1 mm 5 m/s 756 mmHg 69%
    14:00 +8°C° 0.1 mm 5 m/s 756 mmHg 68%
    15:00 +8°C° 0.1 mm 5 m/s 756 mmHg 68%
    16:00 +8°C° 0.1 mm 4 m/s 755 mmHg 73%
    17:00 +8°C° 0.1 mm 3 m/s 755 mmHg 79%
    18:00 +7°C° 0.1 mm 3 m/s 755 mmHg 85%
    19:00 +5°C° 0 mm 3 m/s 755 mmHg 88%
    20:00 +5°C° 0 mm 3 m/s 754 mmHg 91%
    21:00 +4°C° 0 mm 3 m/s 754 mmHg 93%
    22:00 +3°C° 0 mm 3 m/s 754 mmHg 94%
    23:00 +3°C° 0 mm 3 m/s 754 mmHg 94%
    Voir plus